PIMOHWEATHER Station Historical Data
Daily Summary for May 08, 2020 Units:  Metric    English   Both
Daily Weekly Monthly Yearly
  High: Low: Average:
Temperature: 38.0 °C 30.0 °C 33.2 °C
Dew Point: 28.0 °C 25.0 °C 26.1 °C
Humidity: 82% 54% 68%
Wind Speed: 23km/h 0km/h 10.2km/h
Wind Gust: 28km/h - -
Wind- - SSE
Pressure: 1009.1 hPa 1005.1 hPa -
Precipitation: 0.00 mm    
 
 
Tabular Data for May 08, 2020
Time Temperature Dew Point Pressure Wind Wind Speed Wind Gust Humidity Rainfall Rate (Hourly) solar
00:04 30.0 °C 27.0 °C 1007.5 hPa NNE 6 km/h 8 km/h 82% 0.00 mm 0.00 W/m2
00:09 30.0 °C 27.0 °C 1007.5 hPa North 7 km/h 8 km/h 81% 0.00 mm 0.00 W/m2
00:14 30.0 °C 27.0 °C 1007.5 hPa NNE 5 km/h 8 km/h 81% 0.00 mm 0.00 W/m2
00:19 31.0 °C 27.0 °C 1007.5 hPa NE 1 km/h 4 km/h 81% 0.00 mm 0.00 W/m2
00:24 31.0 °C 27.0 °C 1007.5 hPa WSW 1 km/h 4 km/h 81% 0.00 mm 0.00 W/m2
00:29 31.0 °C 27.0 °C 1007.1 hPa NE 4 km/h 8 km/h 81% 0.00 mm 0.00 W/m2
00:34 31.0 °C 27.0 °C 1007.5 hPa NE 3 km/h 4 km/h 82% 0.00 mm 0.00 W/m2
00:39 31.0 °C 27.0 °C 1007.1 hPa Calm     82% 0.00 mm 0.00 W/m2
00:44 31.0 °C 27.0 °C 1007.1 hPa North 1 km/h 4 km/h 81% 0.00 mm 0.00 W/m2
00:49 31.0 °C 27.0 °C 1007.1 hPa North 2 km/h 4 km/h 81% 0.00 mm 0.00 W/m2
00:54 31.0 °C 27.0 °C 1007.1 hPa SE 1 km/h 4 km/h 81% 0.00 mm 0.00 W/m2
00:59 31.0 °C 27.0 °C 1007.1 hPa NE 4 km/h 4 km/h 81% 0.00 mm 0.00 W/m2
01:04 31.0 °C 27.0 °C 1007.1 hPa Calm   4 km/h 81% 0.00 mm 0.00 W/m2
01:09 31.0 °C 27.0 °C 1007.1 hPa SE 8 km/h 12 km/h 81% 0.00 mm 0.00 W/m2
01:14 31.0 °C 26.0 °C 1006.8 hPa NE 5 km/h 8 km/h 74% 0.00 mm 0.00 W/m2
01:19 31.0 °C 25.0 °C 1006.8 hPa ESE 7 km/h 8 km/h 69% 0.00 mm 0.00 W/m2
01:24 31.0 °C 25.0 °C 1006.8 hPa SE 5 km/h 8 km/h 69% 0.00 mm 0.00 W/m2
01:29 31.0 °C 25.0 °C 1006.8 hPa ESE 10 km/h 12 km/h 70% 0.00 mm 0.00 W/m2
01:34 31.0 °C 25.0 °C 1006.8 hPa ESE 6 km/h 8 km/h 69% 0.00 mm 0.00 W/m2
01:39 31.0 °C 25.0 °C 1006.8 hPa ESE 8 km/h 12 km/h 69% 0.00 mm 0.00 W/m2
01:44 31.0 °C 25.0 °C 1006.8 hPa SSE 6 km/h 8 km/h 69% 0.00 mm 0.00 W/m2
01:49 31.0 °C 25.0 °C 1006.8 hPa ESE 8 km/h 12 km/h 70% 0.00 mm 0.00 W/m2
01:54 31.0 °C 25.0 °C 1006.4 hPa ESE 8 km/h 12 km/h 69% 0.00 mm 0.00 W/m2
01:59 31.0 °C 25.0 °C 1006.4 hPa East 9 km/h 12 km/h 70% 0.00 mm 0.00 W/m2
02:04 31.0 °C 25.0 °C 1006.4 hPa East 7 km/h 8 km/h 70% 0.00 mm 0.00 W/m2
02:09 31.0 °C 25.0 °C 1006.4 hPa ESE 4 km/h 4 km/h 70% 0.00 mm 0.00 W/m2
02:14 31.0 °C 25.0 °C 1006.1 hPa ESE 7 km/h 8 km/h 70% 0.00 mm 0.00 W/m2
02:19 31.0 °C 25.0 °C 1006.1 hPa East 6 km/h 8 km/h 70% 0.00 mm 0.00 W/m2
02:24 31.0 °C 25.0 °C 1006.4 hPa ESE 5 km/h 8 km/h 70% 0.00 mm 0.00 W/m2
02:29 31.0 °C 25.0 °C 1006.1 hPa East 6 km/h 8 km/h 71% 0.00 mm 0.00 W/m2
02:34 31.0 °C 25.0 °C 1006.1 hPa East 11 km/h 12 km/h 71% 0.00 mm 0.00 W/m2
02:39 31.0 °C 25.0 °C 1006.1 hPa SE 5 km/h 8 km/h 71% 0.00 mm 0.00 W/m2
02:44 31.0 °C 25.0 °C 1006.1 hPa East 9 km/h 12 km/h 71% 0.00 mm 0.00 W/m2
02:49 31.0 °C 25.0 °C 1006.1 hPa ENE 5 km/h 8 km/h 71% 0.00 mm 0.00 W/m2
02:54 31.0 °C 25.0 °C 1006.1 hPa ESE 10 km/h 12 km/h 71% 0.00 mm 0.00 W/m2
02:59 31.0 °C 25.0 °C 1006.4 hPa East 11 km/h 16 km/h 71% 0.00 mm 0.00 W/m2
03:04 31.0 °C 25.0 °C 1006.4 hPa ESE 4 km/h 8 km/h 71% 0.00 mm 0.00 W/m2
03:09 31.0 °C 25.0 °C 1006.4 hPa East 9 km/h 12 km/h 71% 0.00 mm 0.00 W/m2
03:14 31.0 °C 25.0 °C 1006.4 hPa ESE 3 km/h 4 km/h 71% 0.00 mm 0.00 W/m2
03:19 31.0 °C 25.0 °C 1006.1 hPa SE 7 km/h 12 km/h 71% 0.00 mm 0.00 W/m2
03:24 31.0 °C 25.0 °C 1006.1 hPa ESE 10 km/h 12 km/h 71% 0.00 mm 0.00 W/m2
03:29 31.0 °C 25.0 °C 1006.4 hPa ESE 5 km/h 8 km/h 71% 0.00 mm 0.00 W/m2
03:34 31.0 °C 25.0 °C 1006.1 hPa East 9 km/h 12 km/h 71% 0.00 mm 0.00 W/m2
03:39 31.0 °C 25.0 °C 1006.1 hPa ESE 6 km/h 8 km/h 72% 0.00 mm 0.00 W/m2
03:44 31.0 °C 25.0 °C 1006.4 hPa ESE 7 km/h 8 km/h 72% 0.00 mm 0.00 W/m2
03:49 31.0 °C 25.0 °C 1006.4 hPa ESE 7 km/h 8 km/h 72% 0.00 mm 0.00 W/m2
03:54 31.0 °C 25.0 °C 1006.4 hPa SE 7 km/h 8 km/h 72% 0.00 mm 0.00 W/m2
03:59 31.0 °C 25.0 °C 1006.4 hPa ENE 3 km/h 8 km/h 72% 0.00 mm 0.00 W/m2
04:04 31.0 °C 25.0 °C 1006.4 hPa East 7 km/h 12 km/h 72% 0.00 mm 0.00 W/m2
04:09 31.0 °C 25.0 °C 1006.4 hPa East 9 km/h 12 km/h 71% 0.00 mm 0.00 W/m2
04:14 31.0 °C 25.0 °C 1006.4 hPa East 5 km/h 8 km/h 71% 0.00 mm 0.00 W/m2
04:19 31.0 °C 25.0 °C 1006.4 hPa East 8 km/h 8 km/h 71% 0.00 mm 0.00 W/m2
04:24 31.0 °C 25.0 °C 1006.4 hPa ESE 13 km/h 16 km/h 71% 0.00 mm 0.00 W/m2
04:29 31.0 °C 25.0 °C 1006.8 hPa ESE 5 km/h 8 km/h 71% 0.00 mm 0.00 W/m2
04:34 30.0 °C 25.0 °C 1006.8 hPa ESE 5 km/h 8 km/h 71% 0.00 mm 0.00 W/m2
04:39 30.0 °C 25.0 °C 1006.8 hPa SE 5 km/h 8 km/h 71% 0.00 mm 0.00 W/m2
04:44 30.0 °C 25.0 °C 1006.8 hPa ESE 7 km/h 12 km/h 71% 0.00 mm 0.00 W/m2
04:49 30.0 °C 25.0 °C 1006.8 hPa East 8 km/h 8 km/h 71% 0.00 mm 0.00 W/m2
04:54 30.0 °C 25.0 °C 1006.8 hPa ESE 4 km/h 8 km/h 71% 0.00 mm 0.00 W/m2
04:59 30.0 °C 25.0 °C 1006.8 hPa ESE 5 km/h 8 km/h 72% 0.00 mm 0.00 W/m2
05:04 30.0 °C 25.0 °C 1006.8 hPa ESE 7 km/h 12 km/h 72% 0.00 mm 0.00 W/m2
05:09 30.0 °C 25.0 °C 1006.8 hPa ESE 5 km/h 8 km/h 72% 0.00 mm 0.00 W/m2
05:14 30.0 °C 25.0 °C 1006.8 hPa ESE 8 km/h 8 km/h 72% 0.00 mm 0.00 W/m2
05:19 30.0 °C 25.0 °C 1006.8 hPa Calm   4 km/h 72% 0.00 mm 0.00 W/m2
05:24 30.0 °C 25.0 °C 1007.1 hPa ESE 3 km/h 4 km/h 72% 0.00 mm 0.00 W/m2
05:29 30.0 °C 25.0 °C 1007.1 hPa SE 5 km/h 8 km/h 73% 0.00 mm 1.13 W/m2
05:34 30.0 °C 25.0 °C 1007.1 hPa SE 5 km/h 8 km/h 73% 0.00 mm 4.38 W/m2
05:39 30.0 °C 25.0 °C 1007.5 hPa ESE 5 km/h 8 km/h 73% 0.00 mm 8.31 W/m2
05:44 30.0 °C 25.0 °C 1007.5 hPa East 5 km/h 8 km/h 73% 0.00 mm 14.00 W/m2
05:49 30.0 °C 25.0 °C 1007.5 hPa ESE 4 km/h 4 km/h 73% 0.00 mm 19.96 W/m2
05:54 30.0 °C 25.0 °C 1007.5 hPa SSE 3 km/h 4 km/h 73% 0.00 mm 25.86 W/m2
05:59 30.0 °C 25.0 °C 1007.8 hPa Calm     73% 0.00 mm 30.42 W/m2
06:04 30.0 °C 25.0 °C 1007.8 hPa ESE 3 km/h 4 km/h 73% 0.00 mm 34.56 W/m2
06:09 30.0 °C 25.0 °C 1007.8 hPa ESE 2 km/h 4 km/h 73% 0.00 mm 37.16 W/m2
06:14 30.0 °C 25.0 °C 1007.8 hPa East 3 km/h 4 km/h 72% 0.00 mm 36.40 W/m2
06:19 30.0 °C 25.0 °C 1007.8 hPa ESE 4 km/h 4 km/h 72% 0.00 mm 41.72 W/m2
06:24 30.0 °C 25.0 °C 1007.8 hPa SE 3 km/h 4 km/h 72% 0.00 mm 49.78 W/m2
06:29 31.0 °C 25.0 °C 1007.8 hPa East 4 km/h 4 km/h 72% 0.00 mm 135.57 W/m2
06:34 31.0 °C 25.0 °C 1008.1 hPa SE 2 km/h 4 km/h 72% 0.00 mm 71.12 W/m2
06:39 31.0 °C 25.0 °C 1008.1 hPa ESE 4 km/h 4 km/h 72% 0.00 mm 196.15 W/m2
06:44 31.0 °C 25.0 °C 1008.1 hPa ESE 3 km/h 4 km/h 71% 0.00 mm 86.36 W/m2
06:49 31.0 °C 25.0 °C 1008.1 hPa East 4 km/h 4 km/h 71% 0.00 mm 101.95 W/m2
06:54 31.0 °C 25.0 °C 1008.1 hPa ESE 5 km/h 8 km/h 70% 0.00 mm 121.13 W/m2
06:59 31.0 °C 25.0 °C 1008.1 hPa SSE 1 km/h 4 km/h 69% 0.00 mm 98.38 W/m2
07:04 31.0 °C 25.0 °C 1008.5 hPa East 2 km/h 4 km/h 69% 0.00 mm 99.97 W/m2
07:09 31.0 °C 25.0 °C 1008.5 hPa SE 4 km/h 8 km/h 68% 0.00 mm 122.99 W/m2
07:14 32.0 °C 25.0 °C 1008.5 hPa ESE 10 km/h 12 km/h 67% 0.00 mm 287.53 W/m2
07:19 33.0 °C 25.0 °C 1008.5 hPa East 6 km/h 8 km/h 66% 0.00 mm 287.49 W/m2
07:24 33.0 °C 25.0 °C 1008.8 hPa ESE 6 km/h 8 km/h 64% 0.00 mm 294.41 W/m2
07:29 33.0 °C 25.0 °C 1008.8 hPa ESE 8 km/h 12 km/h 65% 0.00 mm 295.44 W/m2
07:34 33.0 °C 25.0 °C 1008.8 hPa North 5 km/h 8 km/h 64% 0.00 mm 284.04 W/m2
07:39 32.0 °C 25.0 °C 1008.8 hPa NE 5 km/h 8 km/h 65% 0.00 mm 211.20 W/m2
07:44 32.0 °C 25.0 °C 1008.8 hPa NNE 9 km/h 12 km/h 66% 0.00 mm 308.65 W/m2
07:49 32.0 °C 25.0 °C 1008.8 hPa Calm     65% 0.00 mm 342.00 W/m2
07:54 32.0 °C 25.0 °C 1008.8 hPa WNW 4 km/h 8 km/h 65% 0.00 mm 239.85 W/m2
07:59 33.0 °C 25.0 °C 1008.8 hPa South 3 km/h 4 km/h 65% 0.00 mm 347.53 W/m2
08:04 33.0 °C 25.0 °C 1008.8 hPa NNE 6 km/h 8 km/h 64% 0.00 mm 339.70 W/m2
08:09 34.0 °C 26.0 °C 1008.8 hPa North 10 km/h 12 km/h 63% 0.00 mm 356.43 W/m2
08:14 33.0 °C 25.0 °C 1009.1 hPa North 6 km/h 12 km/h 64% 0.00 mm 376.67 W/m2
08:19 34.0 °C 25.0 °C 1008.8 hPa SW 5 km/h 8 km/h 63% 0.00 mm 357.19 W/m2
08:24 34.0 °C 25.0 °C 1009.1 hPa NNE 6 km/h 8 km/h 63% 0.00 mm 152.70 W/m2
08:29 33.0 °C 25.0 °C 1008.8 hPa North 6 km/h 8 km/h 64% 0.00 mm 235.98 W/m2
08:34 33.0 °C 25.0 °C 1008.8 hPa North 6 km/h 8 km/h 65% 0.00 mm 368.06 W/m2
08:39 33.0 °C 25.0 °C 1008.8 hPa North 7 km/h 8 km/h 64% 0.00 mm 367.52 W/m2
08:44 33.0 °C 26.0 °C 1008.8 hPa NW 11 km/h 16 km/h 66% 0.00 mm 372.70 W/m2
08:49 34.0 °C 26.0 °C 1008.8 hPa WNW 6 km/h 8 km/h 64% 0.00 mm 381.71 W/m2
08:54 34.0 °C 26.0 °C 1008.8 hPa West 10 km/h 16 km/h 64% 0.00 mm 390.13 W/m2
08:59 34.0 °C 26.0 °C 1008.8 hPa South 10 km/h 12 km/h 64% 0.00 mm 391.15 W/m2
09:04 35.0 °C 26.0 °C 1008.8 hPa South 6 km/h 8 km/h 62% 0.00 mm 392.79 W/m2
09:09 35.0 °C 26.0 °C 1008.8 hPa WNW 10 km/h 12 km/h 64% 0.00 mm 407.15 W/m2
09:14 34.0 °C 26.0 °C 1008.8 hPa WNW 7 km/h 8 km/h 65% 0.00 mm 411.49 W/m2
09:19 35.0 °C 26.0 °C 1008.5 hPa South 6 km/h 8 km/h 62% 0.00 mm 416.87 W/m2
09:24 35.0 °C 26.0 °C 1008.8 hPa NW 12 km/h 16 km/h 63% 0.00 mm 418.09 W/m2
09:29 34.0 °C 26.0 °C 1008.8 hPa South 10 km/h 16 km/h 63% 0.00 mm 431.28 W/m2
09:34 34.0 °C 26.0 °C 1008.8 hPa WNW 12 km/h 16 km/h 62% 0.00 mm 438.35 W/m2
09:39 35.0 °C 26.0 °C 1008.8 hPa SW 9 km/h 12 km/h 62% 0.00 mm 446.40 W/m2
09:44 35.0 °C 26.0 °C 1008.8 hPa NW 9 km/h 12 km/h 63% 0.00 mm 448.60 W/m2
09:49 35.0 °C 26.0 °C 1008.5 hPa West 12 km/h 16 km/h 63% 0.00 mm 468.47 W/m2
09:54 35.0 °C 26.0 °C 1008.5 hPa NW 15 km/h 16 km/h 66% 0.00 mm 469.03 W/m2
09:59 34.0 °C 26.0 °C 1008.5 hPa West 11 km/h 20 km/h 64% 0.00 mm 463.04 W/m2
10:04 34.0 °C 26.0 °C 1008.5 hPa WNW 10 km/h 12 km/h 64% 0.00 mm 471.53 W/m2
10:09 35.0 °C 26.0 °C 1008.5 hPa NNW 14 km/h 16 km/h 65% 0.00 mm 463.28 W/m2
10:14 35.0 °C 27.0 °C 1008.1 hPa ENE 8 km/h 12 km/h 64% 0.00 mm 466.93 W/m2
10:19 35.0 °C 26.0 °C 1008.5 hPa SSW 9 km/h 12 km/h 63% 0.00 mm 469.01 W/m2
10:24 35.0 °C 27.0 °C 1008.5 hPa SW 8 km/h 12 km/h 64% 0.00 mm 469.06 W/m2
10:29 35.0 °C 27.0 °C 1008.5 hPa SSW 15 km/h 16 km/h 64% 0.00 mm 472.26 W/m2
10:34 35.0 °C 27.0 °C 1008.5 hPa West 12 km/h 16 km/h 64% 0.00 mm 479.04 W/m2
10:39 35.0 °C 27.0 °C 1008.1 hPa West 15 km/h 20 km/h 64% 0.00 mm 481.76 W/m2
10:44 35.0 °C 27.0 °C 1008.1 hPa SSW 13 km/h 16 km/h 63% 0.00 mm 490.81 W/m2
10:49 35.0 °C 27.0 °C 1008.5 hPa SSW 12 km/h 16 km/h 63% 0.00 mm 489.41 W/m2
10:54 35.0 °C 27.0 °C 1008.1 hPa SSW 12 km/h 16 km/h 61% 0.00 mm 490.12 W/m2
10:59 35.0 °C 27.0 °C 1008.5 hPa SSW 13 km/h 16 km/h 63% 0.00 mm 495.21 W/m2
11:04 35.0 °C 27.0 °C 1008.1 hPa WSW 15 km/h 20 km/h 63% 0.00 mm 495.02 W/m2
11:09 35.0 °C 27.0 °C 1008.1 hPa WNW 12 km/h 16 km/h 63% 0.00 mm 497.24 W/m2
11:14 35.0 °C 27.0 °C 1008.5 hPa West 13 km/h 16 km/h 62% 0.00 mm 496.68 W/m2
11:19 35.0 °C 27.0 °C 1008.1 hPa WSW 11 km/h 16 km/h 62% 0.00 mm 501.26 W/m2
11:24 35.0 °C 27.0 °C 1008.1 hPa NNW 11 km/h 20 km/h 62% 0.00 mm 501.70 W/m2
11:29 35.0 °C 27.0 °C 1007.8 hPa SW 14 km/h 16 km/h 62% 0.00 mm 505.17 W/m2
11:34 36.0 °C 27.0 °C 1007.8 hPa SSW 15 km/h 20 km/h 61% 0.00 mm 505.51 W/m2
11:39 35.0 °C 27.0 °C 1007.8 hPa SW 13 km/h 16 km/h 61% 0.00 mm 497.93 W/m2
11:44 35.0 °C 26.0 °C 1007.8 hPa South 13 km/h 20 km/h 61% 0.00 mm 495.87 W/m2
11:49 36.0 °C 27.0 °C 1007.8 hPa South 10 km/h 16 km/h 61% 0.00 mm 505.73 W/m2
11:54 36.0 °C 27.0 °C 1007.8 hPa West 17 km/h 24 km/h 61% 0.00 mm 507.74 W/m2
11:59 36.0 °C 27.0 °C 1007.8 hPa WNW 17 km/h 20 km/h 61% 0.00 mm 505.95 W/m2
12:04 36.0 °C 27.0 °C 1007.5 hPa SSE 6 km/h 12 km/h 60% 0.00 mm 512.05 W/m2
12:09 36.0 °C 27.0 °C 1007.5 hPa WSW 13 km/h 16 km/h 60% 0.00 mm 512.76 W/m2
12:14 36.0 °C 27.0 °C 1007.8 hPa SW 9 km/h 16 km/h 59% 0.00 mm 511.46 W/m2
12:19 36.0 °C 27.0 °C 1007.5 hPa SSW 8 km/h 12 km/h 60% 0.00 mm 519.70 W/m2
12:24 36.0 °C 27.0 °C 1007.5 hPa South 14 km/h 20 km/h 60% 0.00 mm 519.09 W/m2
12:29 36.0 °C 27.0 °C 1007.5 hPa South 17 km/h 20 km/h 61% 0.00 mm 519.48 W/m2
12:34 36.0 °C 27.0 °C 1007.5 hPa SSW 13 km/h 16 km/h 62% 0.00 mm 518.11 W/m2
12:39 36.0 °C 27.0 °C 1007.5 hPa WNW 10 km/h 12 km/h 60% 0.00 mm 520.34 W/m2
12:44 36.0 °C 26.0 °C 1007.1 hPa South 17 km/h 20 km/h 61% 0.00 mm 515.57 W/m2
12:49 36.0 °C 27.0 °C 1007.1 hPa SSW 16 km/h 24 km/h 61% 0.00 mm 510.48 W/m2
12:54 36.0 °C 27.0 °C 1007.5 hPa West 10 km/h 16 km/h 60% 0.00 mm 511.75 W/m2
12:59 36.0 °C 27.0 °C 1007.1 hPa West 12 km/h 16 km/h 59% 0.00 mm 517.65 W/m2
13:04 36.0 °C 27.0 °C 1007.1 hPa SW 9 km/h 12 km/h 59% 0.00 mm 519.21 W/m2
13:09 36.0 °C 27.0 °C 1007.1 hPa South 7 km/h 12 km/h 58% 0.00 mm 520.05 W/m2
13:14 37.0 °C 27.0 °C 1007.1 hPa WSW 10 km/h 16 km/h 58% 0.00 mm 515.10 W/m2
13:19 37.0 °C 27.0 °C 1006.8 hPa South 9 km/h 12 km/h 58% 0.00 mm 520.71 W/m2
13:24 36.0 °C 27.0 °C 1006.8 hPa SSW 13 km/h 20 km/h 59% 0.00 mm 517.11 W/m2
13:29 36.0 °C 27.0 °C 1006.8 hPa South 13 km/h 16 km/h 60% 0.00 mm 506.00 W/m2
13:34 37.0 °C 27.0 °C 1006.8 hPa SSW 10 km/h 12 km/h 60% 0.00 mm 503.65 W/m2
13:39 37.0 °C 28.0 °C 1006.4 hPa West 16 km/h 20 km/h 59% 0.00 mm 503.56 W/m2
13:44 37.0 °C 28.0 °C 1006.4 hPa South 14 km/h 16 km/h 59% 0.00 mm 504.63 W/m2
13:49 37.0 °C 27.0 °C 1006.4 hPa SSW 10 km/h 16 km/h 60% 0.00 mm 497.51 W/m2
13:54 37.0 °C 27.0 °C 1006.4 hPa South 11 km/h 20 km/h 59% 0.00 mm 508.74 W/m2
13:59 37.0 °C 27.0 °C 1006.4 hPa SW 13 km/h 16 km/h 59% 0.00 mm 503.92 W/m2
14:04 37.0 °C 27.0 °C 1006.4 hPa SSE 10 km/h 16 km/h 58% 0.00 mm 497.81 W/m2
14:09 37.0 °C 27.0 °C 1006.4 hPa South 12 km/h 16 km/h 58% 0.00 mm 494.55 W/m2
14:14 37.0 °C 27.0 °C 1006.1 hPa South 12 km/h 12 km/h 58% 0.00 mm 485.11 W/m2
14:19 37.0 °C 27.0 °C 1006.1 hPa SSW 10 km/h 12 km/h 57% 0.00 mm 489.73 W/m2
14:24 37.0 °C 27.0 °C 1006.1 hPa SSE 13 km/h 16 km/h 58% 0.00 mm 492.47 W/m2
14:29 37.0 °C 27.0 °C 1006.4 hPa SW 11 km/h 16 km/h 57% 0.00 mm 487.80 W/m2
14:34 37.0 °C 27.0 °C 1005.8 hPa SSW 12 km/h 16 km/h 56% 0.00 mm 486.65 W/m2
14:39 38.0 °C 27.0 °C 1005.8 hPa South 13 km/h 16 km/h 56% 0.00 mm 492.18 W/m2
14:44 38.0 °C 27.0 °C 1005.8 hPa South 10 km/h 16 km/h 55% 0.00 mm 491.88 W/m2
14:49 38.0 °C 28.0 °C 1005.8 hPa SSW 13 km/h 16 km/h 55% 0.00 mm 490.25 W/m2
14:54 38.0 °C 27.0 °C 1005.8 hPa South 10 km/h 16 km/h 56% 0.00 mm 486.26 W/m2
14:59 38.0 °C 27.0 °C 1005.8 hPa South 13 km/h 16 km/h 56% 0.00 mm 477.79 W/m2
15:04 37.0 °C 27.0 °C 1005.8 hPa SSW 13 km/h 16 km/h 56% 0.00 mm 478.87 W/m2
15:09 37.0 °C 27.0 °C 1005.8 hPa South 15 km/h 16 km/h 55% 0.00 mm 481.24 W/m2
15:14 37.0 °C 27.0 °C 1005.4 hPa South 14 km/h 16 km/h 56% 0.00 mm 468.71 W/m2
15:19 37.0 °C 27.0 °C 1005.4 hPa SSE 15 km/h 16 km/h 57% 0.00 mm 465.66 W/m2
15:24 37.0 °C 27.0 °C 1005.4 hPa South 12 km/h 16 km/h 55% 0.00 mm 466.71 W/m2
15:29 37.0 °C 27.0 °C 1005.4 hPa South 18 km/h 20 km/h 56% 0.00 mm 454.13 W/m2
15:34 38.0 °C 27.0 °C 1005.4 hPa South 10 km/h 16 km/h 56% 0.00 mm 458.34 W/m2
15:39 38.0 °C 27.0 °C 1005.4 hPa South 13 km/h 16 km/h 55% 0.00 mm 453.96 W/m2
15:44 37.0 °C 27.0 °C 1005.4 hPa South 15 km/h 16 km/h 55% 0.00 mm 443.22 W/m2
15:49 38.0 °C 27.0 °C 1005.4 hPa SSW 12 km/h 12 km/h 54% 0.00 mm 425.82 W/m2
15:54 38.0 °C 27.0 °C 1005.1 hPa SSE 12 km/h 16 km/h 55% 0.00 mm 424.09 W/m2
15:59 37.0 °C 27.0 °C 1005.4 hPa SSE 14 km/h 20 km/h 56% 0.00 mm 420.10 W/m2
16:04 37.0 °C 27.0 °C 1005.1 hPa SSE 14 km/h 16 km/h 57% 0.00 mm 391.67 W/m2
16:09 37.0 °C 26.0 °C 1005.1 hPa SSE 17 km/h 20 km/h 55% 0.00 mm 391.10 W/m2
16:14 37.0 °C 26.0 °C 1005.1 hPa SSE 12 km/h 12 km/h 55% 0.00 mm 380.02 W/m2
16:19 37.0 °C 26.0 °C 1005.1 hPa SSE 11 km/h 16 km/h 55% 0.00 mm 377.48 W/m2
16:24 37.0 °C 26.0 °C 1005.1 hPa SE 12 km/h 16 km/h 56% 0.00 mm 364.31 W/m2
16:29 37.0 °C 26.0 °C 1005.1 hPa SE 15 km/h 16 km/h 55% 0.00 mm 348.95 W/m2
16:34 37.0 °C 26.0 °C 1005.1 hPa SE 17 km/h 20 km/h 54% 0.00 mm 334.00 W/m2
16:39 37.0 °C 26.0 °C 1005.1 hPa SE 15 km/h 20 km/h 55% 0.00 mm 315.55 W/m2
16:44 37.0 °C 26.0 °C 1005.1 hPa SE 15 km/h 20 km/h 55% 0.00 mm 309.38 W/m2
16:49 37.0 °C 26.0 °C 1005.1 hPa SE 17 km/h 20 km/h 55% 0.00 mm 295.88 W/m2
16:54 36.0 °C 26.0 °C 1005.1 hPa ESE 12 km/h 12 km/h 55% 0.00 mm 271.14 W/m2
16:59 37.0 °C 26.0 °C 1005.1 hPa ESE 12 km/h 16 km/h 55% 0.00 mm 247.21 W/m2
17:04 37.0 °C 26.0 °C 1005.1 hPa SSE 8 km/h 12 km/h 54% 0.00 mm 216.16 W/m2
17:09 36.0 °C 26.0 °C 1005.4 hPa ESE 8 km/h 12 km/h 55% 0.00 mm 163.41 W/m2
17:14 36.0 °C 26.0 °C 1005.4 hPa SE 10 km/h 12 km/h 55% 0.00 mm 105.55 W/m2
17:19 36.0 °C 26.0 °C 1005.4 hPa SE 10 km/h 12 km/h 56% 0.00 mm 59.03 W/m2
17:24 36.0 °C 26.0 °C 1005.4 hPa SE 15 km/h 16 km/h 57% 0.00 mm 49.31 W/m2
17:29 35.0 °C 26.0 °C 1005.4 hPa SE 13 km/h 16 km/h 58% 0.00 mm 41.16 W/m2
17:34 35.0 °C 26.0 °C 1005.4 hPa SE 11 km/h 12 km/h 58% 0.00 mm 32.55 W/m2
17:39 35.0 °C 26.0 °C 1005.4 hPa SE 16 km/h 20 km/h 59% 0.00 mm 28.14 W/m2
17:44 35.0 °C 26.0 °C 1005.8 hPa SE 19 km/h 24 km/h 60% 0.00 mm 28.55 W/m2
17:49 35.0 °C 26.0 °C 1005.8 hPa SE 21 km/h 24 km/h 62% 0.00 mm 33.57 W/m2
17:54 34.0 °C 26.0 °C 1005.8 hPa SE 20 km/h 28 km/h 61% 0.00 mm 33.75 W/m2
17:59 34.0 °C 26.0 °C 1005.4 hPa SE 17 km/h 20 km/h 61% 0.00 mm 29.28 W/m2
18:04 34.0 °C 26.0 °C 1005.8 hPa SSE 16 km/h 20 km/h 62% 0.00 mm 21.28 W/m2
18:09 34.0 °C 26.0 °C 1005.8 hPa SE 21 km/h 24 km/h 63% 0.00 mm 12.62 W/m2
18:14 34.0 °C 26.0 °C 1005.8 hPa ESE 14 km/h 16 km/h 63% 0.00 mm 5.88 W/m2
18:19 34.0 °C 26.0 °C 1005.8 hPa SE 16 km/h 20 km/h 64% 0.00 mm 1.82 W/m2
18:24 34.0 °C 26.0 °C 1006.1 hPa SSE 18 km/h 24 km/h 65% 0.00 mm 0.00 W/m2
18:29 34.0 °C 26.0 °C 1006.1 hPa SSE 21 km/h 24 km/h 66% 0.00 mm 0.00 W/m2
18:34 34.0 °C 27.0 °C 1005.8 hPa SSE 17 km/h 20 km/h 71% 0.00 mm 0.00 W/m2
18:39 33.0 °C 28.0 °C 1005.8 hPa South 14 km/h 16 km/h 75% 0.00 mm 0.00 W/m2
18:44 33.0 °C 28.0 °C 1006.1 hPa SSE 13 km/h 16 km/h 75% 0.00 mm 0.00 W/m2
18:49 33.0 °C 28.0 °C 1006.4 hPa SSE 14 km/h 16 km/h 76% 0.00 mm 0.00 W/m2
18:54 33.0 °C 28.0 °C 1006.4 hPa South 10 km/h 16 km/h 76% 0.00 mm 0.00 W/m2
18:59 32.0 °C 28.0 °C 1006.8 hPa SSE 10 km/h 16 km/h 76% 0.00 mm 0.00 W/m2
19:04 33.0 °C 28.0 °C 1006.8 hPa South 10 km/h 12 km/h 76% 0.00 mm 0.00 W/m2
19:09 33.0 °C 28.0 °C 1006.8 hPa SSE 13 km/h 16 km/h 76% 0.00 mm 0.00 W/m2
19:14 32.0 °C 28.0 °C 1006.8 hPa SSE 10 km/h 16 km/h 77% 0.00 mm 0.00 W/m2
19:19 32.0 °C 28.0 °C 1006.8 hPa SSE 8 km/h 12 km/h 77% 0.00 mm 0.00 W/m2
19:24 33.0 °C 28.0 °C 1006.8 hPa SSE 11 km/h 16 km/h 76% 0.00 mm 0.00 W/m2
19:29 33.0 °C 27.0 °C 1006.8 hPa SSE 17 km/h 20 km/h 71% 0.00 mm 0.00 W/m2
19:34 33.0 °C 26.0 °C 1006.8 hPa SSE 18 km/h 20 km/h 70% 0.00 mm 0.00 W/m2
19:39 33.0 °C 26.0 °C 1006.8 hPa SSE 15 km/h 16 km/h 69% 0.00 mm 0.00 W/m2
19:44 33.0 °C 26.0 °C 1007.1 hPa SSE 12 km/h 12 km/h 69% 0.00 mm 0.00 W/m2
19:49 33.0 °C 26.0 °C 1007.1 hPa SSE 16 km/h 16 km/h 69% 0.00 mm 0.00 W/m2
19:54 33.0 °C 26.0 °C 1007.1 hPa SSE 15 km/h 16 km/h 69% 0.00 mm 0.00 W/m2
19:59 33.0 °C 26.0 °C 1007.5 hPa SSE 19 km/h 20 km/h 69% 0.00 mm 0.00 W/m2
20:04 33.0 °C 26.0 °C 1007.5 hPa SE 19 km/h 24 km/h 70% 0.00 mm 0.00 W/m2
20:09 33.0 °C 26.0 °C 1007.5 hPa SSE 13 km/h 16 km/h 70% 0.00 mm 0.00 W/m2
20:14 33.0 °C 27.0 °C 1007.5 hPa SSE 13 km/h 16 km/h 71% 0.00 mm 0.00 W/m2
20:19 32.0 °C 27.0 °C 1007.5 hPa SSE 17 km/h 20 km/h 73% 0.00 mm 0.00 W/m2
20:24 32.0 °C 27.0 °C 1007.5 hPa South 17 km/h 20 km/h 73% 0.00 mm 0.00 W/m2
20:29 32.0 °C 27.0 °C 1007.8 hPa SE 18 km/h 20 km/h 74% 0.00 mm 0.00 W/m2
20:34 32.0 °C 27.0 °C 1007.5 hPa SSE 13 km/h 20 km/h 75% 0.00 mm 0.00 W/m2
20:39 32.0 °C 27.0 °C 1007.5 hPa SE 23 km/h 24 km/h 75% 0.00 mm 0.00 W/m2
20:44 32.0 °C 26.0 °C 1007.8 hPa SE 21 km/h 24 km/h 72% 0.00 mm 0.00 W/m2
20:49 32.0 °C 26.0 °C 1007.8 hPa SSE 14 km/h 16 km/h 73% 0.00 mm 0.00 W/m2
20:54 32.0 °C 27.0 °C 1007.8 hPa SSE 17 km/h 20 km/h 74% 0.00 mm 0.00 W/m2
20:59 32.0 °C 27.0 °C 1007.8 hPa SE 22 km/h 28 km/h 76% 0.00 mm 0.00 W/m2
21:04 32.0 °C 27.0 °C 1007.8 hPa SE 22 km/h 28 km/h 76% 0.00 mm 0.00 W/m2
21:09 32.0 °C 27.0 °C 1007.8 hPa SE 19 km/h 24 km/h 77% 0.00 mm 0.00 W/m2
21:14 32.0 °C 27.0 °C 1008.1 hPa SSE 18 km/h 20 km/h 75% 0.00 mm 0.00 W/m2
21:19 32.0 °C 27.0 °C 1008.1 hPa SE 22 km/h 24 km/h 76% 0.00 mm 0.00 W/m2
21:24 31.0 °C 27.0 °C 1008.5 hPa SE 20 km/h 24 km/h 77% 0.00 mm 0.00 W/m2
21:29 31.0 °C 27.0 °C 1008.5 hPa SE 22 km/h 24 km/h 77% 0.00 mm 0.00 W/m2
21:34 31.0 °C 27.0 °C 1008.8 hPa SSE 15 km/h 20 km/h 77% 0.00 mm 0.00 W/m2
21:39 31.0 °C 27.0 °C 1008.8 hPa SSE 15 km/h 16 km/h 76% 0.00 mm 0.00 W/m2
21:44 31.0 °C 27.0 °C 1008.5 hPa SSE 18 km/h 20 km/h 76% 0.00 mm 0.00 W/m2
21:49 31.0 °C 27.0 °C 1008.8 hPa SSE 13 km/h 16 km/h 76% 0.00 mm 0.00 W/m2
21:54 31.0 °C 27.0 °C 1008.8 hPa SE 8 km/h 8 km/h 76% 0.00 mm 0.00 W/m2
21:59 31.0 °C 26.0 °C 1008.8 hPa SE 18 km/h 20 km/h 76% 0.00 mm 0.00 W/m2
22:04 31.0 °C 26.0 °C 1008.8 hPa SE 15 km/h 20 km/h 76% 0.00 mm 0.00 W/m2
22:09 31.0 °C 26.0 °C 1008.5 hPa SSE 17 km/h 20 km/h 76% 0.00 mm 0.00 W/m2
22:14 31.0 °C 26.0 °C 1008.8 hPa SE 10 km/h 16 km/h 76% 0.00 mm 0.00 W/m2
22:19 31.0 °C 26.0 °C 1008.8 hPa SE 15 km/h 20 km/h 76% 0.00 mm 0.00 W/m2
22:24 31.0 °C 26.0 °C 1008.8 hPa SSE 8 km/h 8 km/h 76% 0.00 mm 0.00 W/m2
22:29 31.0 °C 26.0 °C 1008.8 hPa SSE 6 km/h 8 km/h 76% 0.00 mm 0.00 W/m2
22:34 31.0 °C 26.0 °C 1008.8 hPa SE 13 km/h 16 km/h 77% 0.00 mm 0.00 W/m2
22:39 31.0 °C 26.0 °C 1008.8 hPa SSE 10 km/h 12 km/h 77% 0.00 mm 0.00 W/m2
22:44 31.0 °C 26.0 °C 1008.8 hPa SSE 12 km/h 16 km/h 77% 0.00 mm 0.00 W/m2
22:49 31.0 °C 26.0 °C 1008.8 hPa SE 14 km/h 16 km/h 78% 0.00 mm 0.00 W/m2
22:54 31.0 °C 26.0 °C 1008.8 hPa SE 11 km/h 12 km/h 78% 0.00 mm 0.00 W/m2
22:59 31.0 °C 26.0 °C 1008.8 hPa SE 16 km/h 16 km/h 78% 0.00 mm 0.00 W/m2
23:04 31.0 °C 26.0 °C 1008.5 hPa SE 14 km/h 16 km/h 78% 0.00 mm 0.00 W/m2
23:09 31.0 °C 26.0 °C 1008.5 hPa ESE 8 km/h 12 km/h 78% 0.00 mm 0.00 W/m2
23:14 31.0 °C 26.0 °C 1008.5 hPa East 8 km/h 12 km/h 78% 0.00 mm 0.00 W/m2
23:19 31.0 °C 26.0 °C 1008.5 hPa SE 9 km/h 12 km/h 78% 0.00 mm 0.00 W/m2
23:24 31.0 °C 27.0 °C 1008.5 hPa SE 10 km/h 12 km/h 78% 0.00 mm 0.00 W/m2
23:29 31.0 °C 26.0 °C 1008.5 hPa ESE 5 km/h 8 km/h 78% 0.00 mm 0.00 W/m2
23:34 31.0 °C 26.0 °C 1008.5 hPa SE 8 km/h 8 km/h 78% 0.00 mm 0.00 W/m2
23:39 31.0 °C 26.0 °C 1008.1 hPa SE 8 km/h 12 km/h 78% 0.00 mm 0.00 W/m2
23:44 31.0 °C 27.0 °C 1008.1 hPa SSE 9 km/h 12 km/h 79% 0.00 mm 0.00 W/m2
23:49 31.0 °C 27.0 °C 1008.1 hPa SSE 6 km/h 8 km/h 79% 0.00 mm 0.00 W/m2
23:54 31.0 °C 27.0 °C 1008.1 hPa SE 8 km/h 12 km/h 79% 0.00 mm 0.00 W/m2
23:59 31.0 °C 27.0 °C 1008.5 hPa SSE 6 km/h 8 km/h 79% 0.00 mm 0.00 W/m2
PIMOHWEATHER Philippines
Compliments of Weather Underground - 2 mb